This is the latest recevied weather packets stored in our database for station/object KC0UFP. If no packets are shown the sender has not sent any weather packets the latest 10 day(s).
| Time | Temp. | Humidity | Pressure | Rain* | Wind** | Luminosity | Snow |
|---|---|---|---|---|---|---|---|
| 1777945783 | 22.22° C | 53% | 1007.7 hPa | 0 mm | - | 0 W/m² | - |
| 1777945480 | 22.22° C | 52% | 1007.7 hPa | 0 mm | - | 0 W/m² | - |
| 1777945177 | 22.22° C | 52% | 1007.7 hPa | 0 mm | - | 0 W/m² | - |
| 1777944874 | 22.78° C | 51% | 1007.5 hPa | 0 mm | - | 0 W/m² | - |
| 1777944572 | 22.78° C | 51% | 1007.8 hPa | 0 mm | - | 0 W/m² | - |
| 1777944270 | 22.78° C | 50% | 1007.7 hPa | 0 mm | - | 0 W/m² | - |
| 1777943966 | 22.78° C | 50% | 1007.7 hPa | 0 mm | - | 0 W/m² | - |
| 1777943662 | 23.33° C | 49% | 1007.8 hPa | 0 mm | - | 0 W/m² | - |
| 1777943359 | 23.33° C | 48% | 1007.8 hPa | 0 mm | - | 0 W/m² | - |
| 1777943055 | 23.33° C | 48% | 1007.7 hPa | 0 mm | - | 0 W/m² | - |
| 1777942751 | 23.33° C | 48% | 1007.7 hPa | 0 mm | - | 1 W/m² | - |
| 1777942448 | 23.33° C | 48% | 1007.4 hPa | 0 mm | - | 2 W/m² | - |
| 1777942146 | 23.89° C | 48% | 1007.6 hPa | 0 mm | - | 4 W/m² | - |
| 1777941842 | 23.89° C | 47% | 1007.4 hPa | 0 mm | - | 7 W/m² | - |
| 1777941539 | 23.89° C | 47% | 1007.5 hPa | 0 mm | - | 11 W/m² | - |
| 1777941236 | 23.89° C | 47% | 1007.5 hPa | 0 mm | - | 15 W/m² | - |
| 1777940932 | 23.89° C | 46% | 1007.2 hPa | 0 mm | - | 21 W/m² | - |
| 1777940629 | 23.89° C | 46% | 1007.4 hPa | 0 mm | - | 28 W/m² | - |
| 1777940328 | 24.44° C | 46% | 1007.5 hPa | 0 mm | - | 33 W/m² | - |
| 1777940024 | 24.44° C | 46% | 1007.5 hPa | 0 mm | - | 38 W/m² | - |
| 1777939721 | 24.44° C | 45% | 1007.4 hPa | 0 mm | - | 41 W/m² | - |
| 1777939419 | 24.44° C | 45% | 1007.7 hPa | 0 mm | - | 47 W/m² | - |
| 1777939115 | 25° C | 45% | 1007.8 hPa | 0 mm | - | 52 W/m² | - |
| 1777938813 | 25° C | 44% | 1007.6 hPa | 0 mm | - | 88 W/m² | - |
| 1777938509 | 25° C | 44% | 1007.6 hPa | 0 mm | - | 100 W/m² | - |
* Rain latest hour (hover to see other rain measurements)
** Current wind speed in m/s (hover to see current wind gust speed)